Time,TemperatureF,DewpointF,PressureIn,WindDirection,WindDirectionDegrees,WindSpeedMPH,WindSpeedGustMPH,Humidity,HourlyPrecipIn,Conditions,Clouds,dailyrainin,SoftwareType,DateUTC
2013-03-27 00:02:00,39.2,23.9,29.80,ESE,113,0.0,0.9,54,0.00,,,0.00,WUHU216HW,2013-03-27 06:02:00,
2013-03-27 00:12:00,38.9,23.9,29.80,SW,225,1.3,1.8,55,0.00,,,0.00,WUHU216HW,2013-03-27 06:12:00,
2013-03-27 00:22:00,38.2,23.8,29.80,SW,225,1.8,2.5,56,0.00,,,0.00,WUHU216HW,2013-03-27 06:22:00,
2013-03-27 00:32:00,37.8,24.3,29.80,SSW,203,2.2,2.7,58,0.00,,,0.00,WUHU216HW,2013-03-27 06:32:00,
2013-03-27 00:42:00,37.3,23.9,29.80,SSE,158,4.7,6.7,58,0.00,,,0.00,WUHU216HW,2013-03-27 06:42:00,
2013-03-27 00:53:00,36.9,24.0,29.80,ESE,113,3.4,5.4,59,0.00,,,0.00,WUHU216HW,2013-03-27 06:53:00,
2013-03-27 01:03:00,37.1,24.1,29.80,SE,135,2.0,5.4,59,0.00,,,0.00,WUHU216HW,2013-03-27 07:03:00,
2013-03-27 01:13:00,37.1,24.1,29.81,SSW,203,2.5,5.1,59,0.00,,,0.00,WUHU216HW,2013-03-27 07:13:00,
2013-03-27 01:23:00,36.5,24.0,29.81,South,180,8.9,9.6,60,0.00,,,0.00,WUHU216HW,2013-03-27 07:23:00,
2013-03-27 01:33:00,36.0,23.6,29.80,SE,135,4.9,6.9,60,0.00,,,0.00,WUHU216HW,2013-03-27 07:33:00,
2013-03-27 01:43:00,35.6,23.9,29.81,SSE,158,5.4,7.4,62,0.00,,,0.00,WUHU216HW,2013-03-27 07:43:00,
2013-03-27 01:53:00,35.3,23.6,29.81,SSE,158,4.7,6.0,62,0.00,,,0.00,WUHU216HW,2013-03-27 07:53:00,
2013-03-27 02:03:00,35.1,23.4,29.80,SE,135,2.5,4.9,62,0.00,,,0.00,WUHU216HW,2013-03-27 08:03:00,
2013-03-27 02:13:00,34.9,23.2,29.81,SSE,158,2.7,4.7,62,0.00,,,0.00,WUHU216HW,2013-03-27 08:13:00,
2013-03-27 02:23:00,34.4,23.0,29.80,SE,135,2.7,6.3,63,0.00,,,0.00,WUHU216HW,2013-03-27 08:23:00,
2013-03-27 02:33:00,34.4,23.0,29.81,SE,135,1.8,4.7,63,0.00,,,0.00,WUHU216HW,2013-03-27 08:33:00,
2013-03-27 02:43:00,34.2,23.2,29.81,ESE,113,1.8,3.1,64,0.00,,,0.00,WUHU216HW,2013-03-27 08:43:00,
2013-03-27 02:53:00,34.2,22.9,29.81,SSE,158,1.1,2.7,63,0.00,,,0.00,WUHU216HW,2013-03-27 08:53:00,
2013-03-27 03:03:00,34.2,23.2,29.81,SE,135,2.7,2.7,64,0.00,,,0.00,WUHU216HW,2013-03-27 09:03:00,
2013-03-27 03:13:00,33.8,22.9,29.81,SSE,158,3.1,5.1,64,0.00,,,0.00,WUHU216HW,2013-03-27 09:13:00,
2013-03-27 03:23:00,33.8,23.6,29.81,South,180,5.6,7.2,66,0.00,,,0.00,WUHU216HW,2013-03-27 09:23:00,
2013-03-27 03:33:00,33.7,23.4,29.81,SSE,158,4.7,6.5,66,0.00,,,0.00,WUHU216HW,2013-03-27 09:33:00,
2013-03-27 03:43:00,33.8,23.9,29.81,SSW,203,4.7,6.3,67,0.00,,,0.00,WUHU216HW,2013-03-27 09:43:00,
2013-03-27 03:53:00,34.0,24.1,29.81,NE,45,3.1,5.6,67,0.00,,,0.00,WUHU216HW,2013-03-27 09:53:00,
2013-03-27 04:03:00,34.0,24.1,29.81,WNW,293,0.0,2.5,67,0.00,,,0.00,WUHU216HW,2013-03-27 10:03:00,
2013-03-27 04:13:00,34.2,23.9,29.81,SE,135,1.6,1.6,66,0.00,,,0.00,WUHU216HW,2013-03-27 10:13:00,
2013-03-27 04:23:00,34.2,23.9,29.81,West,270,0.0,2.2,66,0.00,,,0.00,WUHU216HW,2013-03-27 10:23:00,
2013-03-27 04:33:00,34.0,23.8,29.81,ESE,113,0.0,0.0,66,0.00,,,0.00,WUHU216HW,2013-03-27 10:33:00,
2013-03-27 04:43:00,33.8,23.6,29.81,SE,135,0.4,1.1,66,0.00,,,0.00,WUHU216HW,2013-03-27 10:43:00,
2013-03-27 04:53:00,33.7,23.4,29.81,SSE,158,1.3,2.5,66,0.00,,,0.00,WUHU216HW,2013-03-27 10:53:00,
2013-03-27 05:03:00,33.5,23.6,29.81,South,180,2.9,2.9,67,0.00,,,0.00,WUHU216HW,2013-03-27 11:03:00,
2013-03-27 05:14:00,33.5,23.6,29.81,South,180,0.4,2.7,67,0.00,,,0.00,WUHU216HW,2013-03-27 11:14:00,
2013-03-27 05:24:00,33.7,23.8,29.81,South,180,0.7,2.9,67,0.00,,,0.00,WUHU216HW,2013-03-27 11:24:00,
2013-03-27 05:34:00,33.7,23.8,29.81,ESE,113,0.4,1.1,67,0.00,,,0.00,WUHU216HW,2013-03-27 11:34:00,
2013-03-27 05:44:00,33.7,23.8,29.82,East,90,0.4,2.5,67,0.00,,,0.00,WUHU216HW,2013-03-27 11:44:00,
2013-03-27 05:54:00,33.7,23.8,29.82,SW,225,0.7,2.0,67,0.00,,,0.00,WUHU216HW,2013-03-27 11:54:00,
2013-03-27 06:04:00,33.7,23.8,29.82,ESE,113,0.2,0.9,67,0.00,,,0.00,WUHU216HW,2013-03-27 12:04:00,
2013-03-27 06:14:00,33.7,23.8,29.82,ESE,113,0.0,0.9,67,0.00,,,0.00,WUHU216HW,2013-03-27 12:14:00,
2013-03-27 06:24:00,33.7,24.1,29.82,NE,45,0.0,0.4,68,0.00,,,0.00,WUHU216HW,2013-03-27 12:24:00,
2013-03-27 06:34:00,33.7,24.1,29.83,NE,45,0.0,0.0,68,0.00,,,0.00,WUHU216HW,2013-03-27 12:34:00,
2013-03-27 06:44:00,33.7,24.1,29.83,NE,45,0.2,0.4,68,0.00,,,0.00,WUHU216HW,2013-03-27 12:44:00,
2013-03-27 06:54:00,33.7,24.1,29.83,ENE,68,0.0,0.0,68,0.00,,,0.00,WUHU216HW,2013-03-27 12:54:00,
2013-03-27 07:04:00,33.7,24.5,29.83,ENE,68,0.0,0.0,69,0.00,,,0.00,WUHU216HW,2013-03-27 13:04:00,
2013-03-27 07:14:00,33.8,24.7,29.83,SW,225,0.0,0.4,69,0.00,,,0.00,WUHU216HW,2013-03-27 13:14:00,
2013-03-27 07:24:00,33.8,24.7,29.83,SSE,158,0.0,0.0,69,0.00,,,0.00,WUHU216HW,2013-03-27 13:24:00,
2013-03-27 07:34:00,33.8,24.7,29.82,SE,135,0.0,0.4,69,0.00,,,0.00,WUHU216HW,2013-03-27 13:34:00,
2013-03-27 07:44:00,34.0,24.8,29.82,SE,135,0.0,0.2,69,0.00,,,0.00,WUHU216HW,2013-03-27 13:44:00,
2013-03-27 07:54:00,34.2,25.0,29.83,SE,135,0.0,0.0,69,0.00,,,0.00,WUHU216HW,2013-03-27 13:54:00,
2013-03-27 08:05:00,34.2,25.4,29.83,SE,135,0.0,0.0,70,0.00,,,0.00,WUHU216HW,2013-03-27 14:05:00,
2013-03-27 08:15:00,34.4,25.6,29.83,North,0,0.4,0.4,70,0.00,,,0.00,WUHU216HW,2013-03-27 14:15:00,
2013-03-27 08:25:00,34.4,25.6,29.83,West,270,0.0,1.1,70,0.00,,,0.00,WUHU216HW,2013-03-27 14:25:00,
2013-03-27 08:35:00,34.6,25.7,29.83,North,0,0.9,0.9,70,0.00,,,0.00,WUHU216HW,2013-03-27 14:35:00,
2013-03-27 08:45:00,34.6,25.7,29.83,NNW,338,0.0,0.7,70,0.00,,,0.00,WUHU216HW,2013-03-27 14:45:00,
2013-03-27 08:55:00,34.9,26.5,29.83,ENE,68,0.0,0.0,71,0.00,,,0.00,WUHU216HW,2013-03-27 14:55:00,
2013-03-27 09:05:00,35.1,26.7,29.84,NNW,338,2.5,2.5,71,0.00,,,0.00,WUHU216HW,2013-03-27 15:05:00,
2013-03-27 09:15:00,35.1,26.3,29.84,NNE,23,0.4,2.0,70,0.00,,,0.00,WUHU216HW,2013-03-27 15:15:00,
2013-03-27 09:25:00,35.8,27.4,29.84,North,0,0.4,1.3,71,0.00,,,0.00,WUHU216HW,2013-03-27 15:25:00,
2013-03-27 09:35:00,36.2,27.4,29.85,NNW,338,0.0,0.7,70,0.00,,,0.00,WUHU216HW,2013-03-27 15:35:00,
2013-03-27 09:45:00,36.5,27.4,29.85,WNW,293,0.4,1.1,69,0.00,,,0.00,WUHU216HW,2013-03-27 15:45:00,
2013-03-27 09:55:00,37.1,28.3,29.85,ESE,113,1.8,2.7,70,0.00,,,0.00,WUHU216HW,2013-03-27 15:55:00,
2013-03-27 10:05:00,37.8,28.2,29.85,NNW,338,1.1,2.0,68,0.00,,,0.00,WUHU216HW,2013-03-27 16:05:00,
2013-03-27 10:16:00,38.2,28.2,29.85,NNW,338,1.8,2.2,67,0.00,,,0.00,WUHU216HW,2013-03-27 16:16:00,
2013-03-27 10:26:00,38.2,28.2,29.85,North,0,2.0,2.5,67,0.00,,,0.00,WUHU216HW,2013-03-27 16:26:00,
2013-03-27 10:36:00,38.5,28.1,29.85,NE,45,0.9,3.4,66,0.00,,,0.00,WUHU216HW,2013-03-27 16:36:00,
2013-03-27 10:46:00,38.9,28.8,29.85,West,270,2.5,4.7,67,0.00,,,0.00,WUHU216HW,2013-03-27 16:46:00,
2013-03-27 10:56:00,39.2,28.7,29.85,NW,315,1.6,2.5,66,0.00,,,0.00,WUHU216HW,2013-03-27 16:56:00,
2013-03-27 11:06:00,40.3,30.2,29.84,NE,45,1.3,2.5,67,0.00,,,0.00,WUHU216HW,2013-03-27 17:06:00,
2013-03-27 11:16:00,41.8,30.4,29.84,NNE,23,4.0,4.0,64,0.00,,,0.00,WUHU216HW,2013-03-27 17:16:00,
2013-03-27 11:26:00,42.7,30.5,29.84,NNE,23,2.7,4.3,62,0.00,,,0.00,WUHU216HW,2013-03-27 17:26:00,
2013-03-27 11:36:00,43.4,30.4,29.84,NNW,338,1.1,3.1,60,0.00,,,0.00,WUHU216HW,2013-03-27 17:36:00,
2013-03-27 11:46:00,44.5,31.1,29.83,North,0,4.0,4.5,59,0.00,,,0.00,WUHU216HW,2013-03-27 17:46:00,
2013-03-27 11:56:00,46.1,31.6,29.83,NW,315,1.3,4.0,57,0.00,,,0.00,WUHU216HW,2013-03-27 17:56:00,
2013-03-27 12:07:00,46.4,31.5,29.83,NNW,338,0.9,3.8,56,0.00,,,0.00,WUHU216HW,2013-03-27 18:07:00,
2013-03-27 12:17:00,47.5,32.0,29.83,NNW,338,0.4,3.4,55,0.00,,,0.00,WUHU216HW,2013-03-27 18:17:00,
2013-03-27 12:27:00,47.9,31.5,29.82,NW,315,3.1,3.4,53,0.00,,,0.00,WUHU216HW,2013-03-27 18:27:00,
2013-03-27 12:37:00,48.1,31.2,29.82,NNW,338,1.1,2.5,52,0.00,,,0.00,WUHU216HW,2013-03-27 18:37:00,
2013-03-27 12:50:00,47.9,31.1,29.81,NNW,338,0.7,4.0,52,0.00,,,0.00,WUHU216HW,2013-03-27 18:50:00,
2013-03-27 13:00:00,48.2,31.3,29.81,NW,315,1.1,2.9,52,0.00,,,0.00,WUHU216HW,2013-03-27 19:00:00,
2013-03-27 13:10:00,49.0,31.6,29.81,NNE,23,0.7,2.7,51,0.00,,,0.00,WUHU216HW,2013-03-27 19:10:00,
2013-03-27 13:20:00,50.0,32.2,29.81,SSE,158,1.1,2.9,50,0.00,,,0.00,WUHU216HW,2013-03-27 19:20:00,
2013-03-27 13:30:00,50.9,32.0,29.81,NE,45,3.6,4.0,48,0.00,,,0.00,WUHU216HW,2013-03-27 19:30:00,
2013-03-27 13:40:00,52.0,32.3,29.81,ENE,68,2.5,4.3,47,0.00,,,0.00,WUHU216HW,2013-03-27 19:40:00,
2013-03-27 13:50:00,52.9,32.6,29.81,NE,45,4.3,4.3,46,0.00,,,0.00,WUHU216HW,2013-03-27 19:50:00,
2013-03-27 14:00:00,53.3,31.8,29.80,East,90,4.7,4.7,44,0.00,,,0.00,WUHU216HW,2013-03-27 20:00:00,
2013-03-27 14:10:00,54.2,32.6,29.80,ENE,68,0.9,3.1,44,0.00,,,0.00,WUHU216HW,2013-03-27 20:10:00,
2013-03-27 14:20:00,54.7,32.5,29.79,North,0,5.1,5.4,43,0.00,,,0.00,WUHU216HW,2013-03-27 20:20:00,
2013-03-27 14:30:00,55.3,33.0,29.79,North,0,1.6,2.7,43,0.00,,,0.00,WUHU216HW,2013-03-27 20:30:00,
2013-03-27 14:40:00,55.3,33.0,29.79,West,270,2.5,3.6,43,0.00,,,0.00,WUHU216HW,2013-03-27 20:40:00,
2013-03-27 14:50:00,55.4,32.0,29.79,North,0,4.7,10.1,41,0.00,,,0.00,WUHU216HW,2013-03-27 20:50:00,
2013-03-27 15:00:00,55.6,33.3,29.79,WNW,293,8.5,8.5,43,0.00,,,0.00,WUHU216HW,2013-03-27 21:00:00,
2013-03-27 15:10:00,55.6,32.2,29.79,North,0,6.3,7.4,41,0.00,,,0.00,WUHU216HW,2013-03-27 21:10:00,
2013-03-27 15:20:00,55.6,33.3,29.79,NNE,23,4.3,8.5,43,0.00,,,0.00,WUHU216HW,2013-03-27 21:20:00,
2013-03-27 15:30:00,55.8,34.1,29.79,WNW,293,6.0,14.3,44,0.00,,,0.00,WUHU216HW,2013-03-27 21:30:00,
2013-03-27 15:40:00,56.0,34.2,29.79,NNW,338,5.4,8.1,44,0.00,,,0.00,WUHU216HW,2013-03-27 21:40:00,
2013-03-27 15:50:00,55.1,33.9,29.79,NW,315,9.2,9.2,45,0.00,,,0.00,WUHU216HW,2013-03-27 21:50:00,
2013-03-27 16:00:00,54.4,33.8,29.79,NW,315,5.4,10.5,46,0.00,,,0.00,WUHU216HW,2013-03-27 22:00:00,
2013-03-27 16:11:00,54.0,34.7,29.79,NNW,338,4.0,9.2,48,0.00,,,0.00,WUHU216HW,2013-03-27 22:11:00,
2013-03-27 16:21:00,54.0,35.2,29.80,NW,315,4.5,6.9,49,0.00,,,0.00,WUHU216HW,2013-03-27 22:21:00,
2013-03-27 16:31:00,53.6,35.5,29.80,NNW,338,1.8,5.8,50,0.00,,,0.00,WUHU216HW,2013-03-27 22:31:00,
2013-03-27 16:41:00,53.5,34.7,29.79,North,0,2.2,6.3,49,0.00,,,0.00,WUHU216HW,2013-03-27 22:41:00,
2013-03-27 16:51:00,53.8,35.7,29.79,NW,315,5.4,6.0,50,0.00,,,0.00,WUHU216HW,2013-03-27 22:51:00,
2013-03-27 17:01:00,53.8,35.7,29.79,North,0,3.1,5.4,50,0.00,,,0.00,WUHU216HW,2013-03-27 23:01:00,
2013-03-27 17:11:00,53.6,35.5,29.79,WNW,293,4.3,6.9,50,0.00,,,0.00,WUHU216HW,2013-03-27 23:11:00,
2013-03-27 17:21:00,54.2,35.4,29.79,NW,315,4.5,5.4,49,0.00,,,0.00,WUHU216HW,2013-03-27 23:21:00,
2013-03-27 17:31:00,54.5,36.3,29.79,North,0,2.5,7.6,50,0.00,,,0.00,WUHU216HW,2013-03-27 23:31:00,
2013-03-27 17:41:00,54.5,36.3,29.79,North,0,3.4,8.3,50,0.00,,,0.00,WUHU216HW,2013-03-27 23:41:00,
2013-03-27 17:51:00,54.5,36.3,29.79,NW,315,4.7,7.8,50,0.00,,,0.00,WUHU216HW,2013-03-27 23:51:00,
2013-03-27 18:01:00,54.4,35.0,29.79,NNE,23,2.9,4.5,48,0.00,,,0.00,WUHU216HW,2013-03-28 00:01:00,
2013-03-27 18:11:00,54.5,35.2,29.79,NNW,338,3.4,7.2,48,0.00,,,0.00,WUHU216HW,2013-03-28 00:11:00,
2013-03-27 18:21:00,54.4,35.0,29.79,NNE,23,6.3,6.3,48,0.00,,,0.00,WUHU216HW,2013-03-28 00:21:00,
2013-03-27 18:31:00,54.4,35.0,29.79,NNE,23,3.4,6.5,48,0.00,,,0.00,WUHU216HW,2013-03-28 00:31:00,
2013-03-27 18:42:00,54.4,35.0,29.79,North,0,4.0,6.9,48,0.00,,,0.00,WUHU216HW,2013-03-28 00:42:00,
2013-03-27 18:52:00,54.2,35.4,29.79,NNW,338,4.9,4.9,49,0.00,,,0.00,WUHU216HW,2013-03-28 00:52:00,
2013-03-27 19:02:00,54.0,35.8,29.79,North,0,4.0,4.0,50,0.00,,,0.00,WUHU216HW,2013-03-28 01:02:00,
2013-03-27 19:12:00,53.6,35.9,29.79,NNW,338,2.5,4.9,51,0.00,,,0.00,WUHU216HW,2013-03-28 01:12:00,
2013-03-27 19:22:00,53.5,35.7,29.79,North,0,2.7,3.4,51,0.00,,,0.00,WUHU216HW,2013-03-28 01:22:00,
2013-03-27 19:32:00,53.1,35.9,29.79,NNE,23,1.1,5.4,52,0.00,,,0.00,WUHU216HW,2013-03-28 01:32:00,
2013-03-27 19:42:00,52.9,35.7,29.80,North,0,2.5,3.6,52,0.00,,,0.00,WUHU216HW,2013-03-28 01:42:00,
2013-03-27 19:52:00,52.7,35.6,29.80,North,0,0.0,2.5,52,0.00,,,0.00,WUHU216HW,2013-03-28 01:52:00,
2013-03-27 20:02:00,52.6,35.4,29.80,WNW,293,1.8,2.7,52,0.00,,,0.00,WUHU216HW,2013-03-28 02:02:00,
2013-03-27 20:12:00,52.2,35.1,29.80,SW,225,0.4,1.1,52,0.00,,,0.00,WUHU216HW,2013-03-28 02:12:00,
2013-03-27 20:22:00,52.0,34.9,29.81,WSW,248,0.9,1.1,52,0.00,,,0.00,WUHU216HW,2013-03-28 02:22:00,
2013-03-27 20:32:00,51.8,34.7,29.81,ESE,113,0.0,0.4,52,0.00,,,0.00,WUHU216HW,2013-03-28 02:32:00,
2013-03-27 20:42:00,51.5,34.4,29.81,ESE,113,0.9,1.3,52,0.00,,,0.00,WUHU216HW,2013-03-28 02:42:00,
2013-03-27 20:52:00,51.1,34.6,29.82,ENE,68,0.0,1.1,53,0.00,,,0.00,WUHU216HW,2013-03-28 02:52:00,
2013-03-27 21:02:00,50.8,34.7,29.82,North,0,0.7,2.5,54,0.00,,,0.00,WUHU216HW,2013-03-28 03:02:00,
2013-03-27 21:12:00,50.4,34.4,29.82,North,0,0.2,0.9,54,0.00,,,0.00,WUHU216HW,2013-03-28 03:12:00,
2013-03-27 21:22:00,50.2,34.7,29.82,SE,135,0.0,0.7,55,0.00,,,0.00,WUHU216HW,2013-03-28 03:22:00,
2013-03-27 21:32:00,50.0,34.5,29.83,WSW,248,1.1,1.1,55,0.00,,,0.00,WUHU216HW,2013-03-28 03:32:00,
2013-03-27 21:42:00,49.7,34.6,29.83,SE,135,0.9,1.6,56,0.00,,,0.00,WUHU216HW,2013-03-28 03:42:00,
2013-03-27 21:53:00,49.5,34.4,29.84,SE,135,0.9,2.5,56,0.00,,,0.00,WUHU216HW,2013-03-28 03:53:00,
2013-03-27 22:03:00,49.3,34.2,29.84,ENE,68,1.1,1.1,56,0.00,,,0.00,WUHU216HW,2013-03-28 04:03:00,
2013-03-27 22:13:00,48.8,33.8,29.84,ESE,113,2.5,3.4,56,0.00,,,0.00,WUHU216HW,2013-03-28 04:13:00,
2013-03-27 22:23:00,48.6,34.5,29.84,North,0,1.8,3.6,58,0.00,,,0.00,WUHU216HW,2013-03-28 04:23:00,
2013-03-27 22:33:00,48.2,34.7,29.84,East,90,2.0,2.2,59,0.00,,,0.00,WUHU216HW,2013-03-28 04:33:00,
2013-03-27 22:43:00,48.2,34.7,29.84,ENE,68,1.8,4.0,59,0.00,,,0.00,WUHU216HW,2013-03-28 04:43:00,
2013-03-27 22:53:00,47.9,34.7,29.84,East,90,2.0,3.1,60,0.00,,,0.00,WUHU216HW,2013-03-28 04:53:00,
2013-03-27 23:03:00,47.7,34.6,29.84,ESE,113,0.7,2.9,60,0.00,,,0.00,WUHU216HW,2013-03-28 05:03:00,
2013-03-27 23:13:00,47.3,34.6,29.85,SW,225,1.8,1.8,61,0.00,,,0.00,WUHU216HW,2013-03-28 05:13:00,
2013-03-27 23:23:00,46.8,33.7,29.84,SSE,158,1.8,2.9,60,0.00,,,0.00,WUHU216HW,2013-03-28 05:23:00,
2013-03-27 23:33:00,46.3,33.1,29.84,South,180,1.8,2.0,60,0.00,,,0.00,WUHU216HW,2013-03-28 05:33:00,
2013-03-27 23:43:00,45.9,33.2,29.84,SSE,158,2.5,2.5,61,0.00,,,0.00,WUHU216HW,2013-03-28 05:43:00,
2013-03-27 23:53:00,45.5,33.3,29.84,NNW,338,0.0,1.8,62,0.00,,,0.00,WUHU216HW,2013-03-28 05:53:00,